THOR ABLESTAR DEB, 246

Orbit data source: Space-Track

THOR ABLESTAR DEB, 246 is space debris in LEO originally from a launch on Thu, 29 Jun 1961 UTC launched from the Air Force Eastern Test Range (AFETR). Debris objects in space refer to the collection of defunct objects orbiting the Earth. Examples of debris include non-operational satellites, rocket bodies, and fragments generated from explosions, collisions, or faulty payload assembly.

Loading next visibility...
Identifier
246, 1961-015CB
Orbit
LEO
Country
Flag of USUS
Related business
Manufacturer
Unknown
Mission
Spacecraft
Bus & Motor
Unknown
Mass
Unknown
Launch date (UTC)
1961-06-29 (64 years ago)
Launch vehicle
Unknown
Launch site
Air Force Eastern Test Range (AFETR)
Object type
Payload
Rocket body
Debris
Shape & HBR
Unknown shape, 0.2 m
Radar Cross Section
Medium (>0.1 m² and <1 m²)

Expand to show TLE details & history
Last TLE update: 14 hours ago

TLE from 14 hours ago
0 THOR ABLESTAR DEB
1 00246U 61015CB  25349.97663665 -.00000023  00000-0  44951-4 0  9999
2 00246  66.8697 274.5122 0072062 263.1066  96.1809 13.86129960598471
Epoch: 2025-12-15T23:26Z
TLE epoch observation values (Epoch: 2025-12-15T23:26:21.406Z)
Latitude
-0.00004°
Longitude
-161.94448°
Altitude
950.357 km
Speed
7.374 km/s
True Right ascension
18h 18m 02s
True Declination
0° 00' 00"
Sunlit
Object was in daylight at epoch
Visualization orbit readout
Latitude
Unknown
Longitude
Unknown
Altitude
Unknown
Speed
Unknown
Apparent Right ascension
Unknown
Apparent Declination
Unknown
Sunlit
N/A
Visualization observer readout
Local Sidereal Time
11:56:22
Azimuth
Unknown
Elevation
Unknown
Doppler factor
Unknown
Orbital elements
Apogee altitude
993.354 km
Perigee altitude
887.873 km
Semi-major axis
7,318.751 km
Eccentricity
0.00721
Inclination
66.8697°
RAAN
274.5122°
Arg. of periapsis
263.1066°
True anomaly
97.00105°
Mean anomaly
96.1809°
Eccentric anomaly
96.59106°
Mean motion
3.46647 °/min
Orbital period
103.85 mins
BSTAR
0.000044951
Loading maneuver chart data...
Computing Atmospheric mass density...

Documentation

Showing up to 5 results
|